This is the latest recevied weather packets stored in our database for station/object KGRR-WX. If no packets are shown the sender has not sent any weather packets the latest 10 day(s).
| Time | Temp. | Humidity | Pressure | Rain* | Wind** | Luminosity | Snow |
|---|---|---|---|---|---|---|---|
| 1788441305 | 25° C | 87% | 985.4 hPa | 0 mm | - | - | - |
| 1788440405 | 24.44° C | 87% | 985.4 hPa | 0 mm | - | - | - |
| 1788439505 | 23.33° C | 94% | 985 hPa | 0 mm | - | - | - |
| 1788438605 | 22.78° C | 94% | 986 hPa | 0 mm | - | - | - |
| 1788437706 | 22.22° C | 94% | 986 hPa | 0 mm | - | - | - |
| 1788436806 | 21.67° C | 94% | 986 hPa | 0 mm | - | - | - |
| 1788435906 | 21.11° C | 92% | 985.5 hPa | 0 mm | - | - | - |
| 1788435008 | 21.11° C | 93% | 985.9 hPa | 0 mm | - | - | - |
| 1788434111 | 21.11° C | 93% | 985.9 hPa | 0 mm | - | - | - |
| 1788433210 | 21.11° C | 93% | 985.9 hPa | 0 mm | - | - | - |
| 1788432311 | 21.11° C | 92% | 984.7 hPa | 0 mm | - | - | - |
| 1788431410 | 21.11° C | 93% | 985.1 hPa | 0 mm | - | - | - |
| 1788430510 | 21.11° C | 93% | 985.1 hPa | 0 mm | - | - | - |
| 1788429610 | 21.67° C | 93% | 985.1 hPa | 0 mm | - | - | - |
| 1788428710 | 21.67° C | 91% | 985 hPa | 0 mm | - | - | - |
| 1788427824 | -17.78° C | 100% | - | 0 mm | - | - | - |
| 1788426910 | 21.67° C | 93% | 985.1 hPa | 0 mm | - | - | - |
| 1788426010 | 21.67° C | 93% | 985.1 hPa | 0 mm | - | - | - |
| 1788425130 | -17.78° C | 100% | - | 0 mm | - | - | - |
| 1788424216 | -17.78° C | 100% | - | 0 mm | - | - | - |
| 1788423310 | 21.67° C | 93% | 985.2 hPa | 0 mm | - | - | - |
| 1788422409 | 22.22° C | 93% | 984.8 hPa | 0 mm | - | - | - |
| 1788421504 | 22.22° C | 92% | 984.8 hPa | 0 mm | - | - | - |
| 1788420610 | 22.22° C | 92% | 984.8 hPa | 0 mm | - | - | - |
| 1788419709 | 22.22° C | 92% | 984.8 hPa | 0 mm | - | - | - |
* Rain latest hour (hover to see other rain measurements)
** Current wind speed in m/s (hover to see current wind gust speed)